National Weather Service United States Department of Commerce

Observations from across/near northern Michigan

Marine Observations

Michigan Hourly Observations

 

Yesterday's high, low and precipitation reports from across northern Michigan

Northern Michigan Temperatures and Precipitation

 

Observation Text Products


000
SXUS83 KAPX 030008
OMRAPX

Marine Observations
National Weather Service Gaylord MI
808 PM Sat Mar 2 2024

WIND DATA (KTS) WAVES WATER
SITE DATE/TIME DIR SPEED GUST (FT) TEMP(F) SITE NAME
-------------------------------------------------------------

Lake Superior/St Marys River

GRMM4 022340Z 190 16 22 Grand Marais
WFPM4 022340Z 180 9 11 Whitefish Point
PTIM4 022330Z 120 4 6 Point Iroquois
CYAM 022300Z 170 4 SOO (Canada)
KANJ 022355Z 150 5 Sault Ste Marie
SWPM4 022330Z 170 3 4 S.W. Pier
LTRM4 022330Z 180 4 6 Little Rapids
RCKM4 022330Z 140 9 12 Rock Cut
WNEM4 022330Z 150 7 9 West Nebish Island

Lake Huron

DTLM4 022330Z 150 7 9 34.87 DeTour Village
KDRM 022355Z 130 4 Drummond Island
KMCD 022355Z 120 7 Mackinac Island
MACM4 022330Z 140 3 4 33.26 Mackinac City
KSLH 022355Z CALM Cheboygan Airport
SRLM4 022200Z 40 5 Spectacle Reef Light
KPZQ 022355Z CALM Rogers City
PRIM4 022250Z 230 10 14 Presque Isle Light
KAPN 022354Z 130 4 Alpena Guard Base
APNM4 022350Z 130 13 14 Alpena Harbor Light
TBIM4 022330Z 140 11 12 Thunder Bay Island
SPTM4 022250Z 180 3 10 Sturgeon Point Light
KOSC 022355Z 130 5 Oscoda
TAWM4 022340Z 80 3 5 Tawas Point
GSLM4 022340Z 100 13 Gravelly Shoals

Lake Michigan

KISQ 022355Z 120 4 Manistique
PNLM4 022330Z 110 7 8 Port Inland
NABM4 022340Z CALM Naubinway
KSJX 022355Z CALM St James
KPLN 022354Z CALM Pellston
KMGN 022355Z 70 5 Harbor Springs
KCVX 022355Z CALM Charlevoix
NMIM4 022328Z 250 3 8 North Manitou Island
GTLM4 022240Z 240 4 5 Grand Traverse Light
KTVC 022353Z CALM Traverse City
KFKS 022355Z 140 3 Frankfort
MEEM4 022340Z 190 2 6 Manistee Harbor
BSBM4 022340Z 160 8 12 Big Sable Point
LDTM4 022330Z 160 4 8 Ludington
KLDM 022355Z 170 3 Ludington Airport


000
ASUS43 KDTX 030010
RWRMI
MICHIGAN HOURLY REGIONAL WEATHER ROUNDUP
NATIONAL WEATHER SERVICE DETROIT/PONTIAC MI
700 PM EST SAT MAR 02 2024

NOTE: "FAIR" INDICATES FEW OR NO CLOUDS BELOW 12,000 FEET WITH NO
SIGNIFICANT WEATHER AND/OR OBSTRUCTION TO VISIBILITY.

MIZ047>049-052>055-059>063-066>070-074>076-081>083-030100-
SOUTHEAST LOWER MICHIGAN

CITY SKY/WX TMP DP RH WIND PRES REMARKS
ADRIAN FAIR 47 37 68 S6 30.10 TC 8
6HR MIN TEMP: 47; 6HR MAX TEMP: 53;

ALMA FAIR 48 35 60 CALM 30.07R TC 9
6HR MIN TEMP: 47; 6HR MAX TEMP: 55;

ANN ARBOR FAIR 47 37 68 S3 30.10R TC 8
BAD AXE FAIR 42 34 73 CALM 30.09R TC 6
6HR MIN TEMP: 40; 6HR MAX TEMP: 53;

CARO FAIR 44 35 70 CALM 30.08S TC 6
DETROIT CITY FAIR 48 37 65 S7 30.11R TC 9
6HR MIN TEMP: 48; 6HR MAX TEMP: 54;

DETROIT MOCLDY 45 38 76 S7 30.12R TC 7
6HR MIN TEMP: 45; 6HR MAX TEMP: 53;

FLINT FAIR 45 37 73 CALM 30.09R TC 7
6HR MIN TEMP: 45; 6HR MAX TEMP: 54;

GROSSE ILE FAIR 38 33 83 S3 30.11S TC 3
6HR MIN TEMP: 38; 6HR MAX TEMP: 46;

HILLSDALE FAIR 46 33 59 SE3 30.07S TC 8
6HR MIN TEMP: 46; 6HR MAX TEMP: 53;

HOWELL FAIR 46 36 67 SE5 30.08S TC 8
6HR MIN TEMP: 46; 6HR MAX TEMP: 53;


CITY SKY/WX TMP DP RH WIND PRES REMARKS
JACKSON FAIR 47 36 65 E5 30.08R TC 8
6HR MIN TEMP: 47; 6HR MAX TEMP: 55;

LAMBERTVILLE CLOUDY 49 38 65 S3 30.12R TC 10
6HR MIN TEMP: 47; 6HR MAX TEMP: 53;

LANSING FAIR 50 37 61 S5 30.07S TC 10
6HR MIN TEMP: 50; 6HR MAX TEMP: 54;

LAPEER FAIR 47 35 61 SE5 30.10R TC 9
6HR MIN TEMP: 47; 6HR MAX TEMP: 54;

MASON FAIR 49 37 62 E5 30.08R TC 10
6HR MIN TEMP: 49; 6HR MAX TEMP: 55;

MONROE MOCLDY 43 38 83 SE5 30.11S TC 6
6HR MIN TEMP: 43; 6HR MAX TEMP: 50;

MT. CLEMENS PTCLDY 40 35 81 SE6 30.09R TC 5
6HR MIN TEMP: 40; 6HR MAX TEMP: 50;

PONTIAC FAIR 48 35 60 S3 30.08S TC 9
6HR MIN TEMP: 46; 6HR MAX TEMP: 52;

PORT HOPE N/A 40 35 83 SE3 30.09R TC 4
6HR MIN TEMP: 39; 6HR MAX TEMP: 45;

PORT HURON FAIR 41 34 75 CALM 30.12S TC 5
TRI CITIES FAIR 46 36 68 S3 30.08R TC 8
6HR MIN TEMP: 46; 6HR MAX TEMP: 54;

MIDLAND FAIR 48 35 60 CALM 30.07R TC 9
6HR MIN TEMP: 48; 6HR MAX TEMP: 54;

TROY FAIR 47 36 65 S5 30.13R TC 9
SAGINAW HB FAIR 45 34 65 S7 30.07S TC 7
6HR MIN TEMP: 45; 6HR MAX TEMP: 54;

$$
MIZ043>046-050>051-056>058-064>065-071>073-077>080-030100-
SOUTHWEST LOWER MICHIGAN

CITY SKY/WX TMP DP RH WIND PRES REMARKS
BATTLE CREEK FAIR 49 37 63 S5 30.06S TC 9
6HR MIN TEMP: 49; 6HR MAX TEMP: 55;

BENTON HARBOR FAIR 49 38 65 SE7 30.05R TC 9
6HR MIN TEMP: 49; 6HR MAX TEMP: 54;

BIG RAPIDS FAIR 47 32 56 S5 30.05R TC 9
6HR MIN TEMP: 47; 6HR MAX TEMP: 54;

COLDWATER FAIR 49 36 59 S3 30.08R TC 10
6HR MIN TEMP: 49; 6HR MAX TEMP: 55;

HOLLAND FAIR 45 35 68 CALM 30.05S TC 7
6HR MIN TEMP: 45; 6HR MAX TEMP: 52;

GRAND RAPIDS MOCLDY 50 37 61 S3 30.06R TC 10
6HR MIN TEMP: 49; 6HR MAX TEMP: 54;

IONIA FAIR 50 36 57 S6 30.06R TC 10
KALAMAZOO FAIR 51 37 58 S5 30.07S TC 11
6HR MIN TEMP: 50; 6HR MAX TEMP: 56;

LUDINGTON FAIR 46 33 62 S3 30.03F TC 8
6HR MIN TEMP: 45; 6HR MAX TEMP: 50;

MARSHALL FAIR 48 36 62 CALM 30.06S TC 9
6HR MIN TEMP: 48; 6HR MAX TEMP: 55;

MOUNT PLEASANT FAIR 48 34 58 CALM 30.06R TC 9
6HR MIN TEMP: 48; 6HR MAX TEMP: 55;

MUSKEGON FAIR 46 33 60 SE5 30.06S TC 8
6HR MIN TEMP: 46; 6HR MAX TEMP: 50;

SOUTH HAVEN FAIR 47 35 62 SE3 30.05S TC 9
$$
MIZ016>042-030100-
NORTHERN LOWER MICHIGAN

CITY SKY/WX TMP DP RH WIND PRES REMARKS
ALPENA FAIR 37 31 78 SE5 30.07R WCI 33 TC 3
6HR MIN TEMP: 36; 6HR MAX TEMP: 52;

BEAVER ISLAND FAIR 37 33 87 CALM 30.05R TC 3
6HR MIN TEMP: 36; 6HR MAX TEMP: 49;

BELLAIRE FAIR 42 34 74 CALM 30.04R TC 5
6HR MIN TEMP: 41; 6HR MAX TEMP: 53;

CADILLAC FAIR 48 34 57 S5 30.03R TC 9
6HR MIN TEMP: 47; 6HR MAX TEMP: 54;

CHARLEVOIX FAIR 39 34 82 CALM 30.05R TC 4
6HR MIN TEMP: 39; 6HR MAX TEMP: 52;

CHEBOYGAN FAIR 36 30 80 CALM 30.06R TC 2
FRANKFORT FAIR 43 34 71 SE3 30.03R TC 6
GAYLORD FAIR 46 32 58 CALM 30.03R TC 8
6HR MIN TEMP: 46; 6HR MAX TEMP: 54;

GRAYLING FAIR 41 35 78 S3 30.02S TC 5
6HR MIN TEMP: 41; 6HR MAX TEMP: 53;

HARBOR SPRINGS FAIR 41 32 71 E6 30.05R TC 5
HOUGHTON LAKE FAIR 44 34 67 SW3 30.04S TC 7
6HR MIN TEMP: 43; 6HR MAX TEMP: 53;

MANISTEE FAIR 47 35 63 S5 30.03R TC 8
OSCODA FAIR 40 33 75 SE6 30.08S TC 4
6HR MIN TEMP: 40; 6HR MAX TEMP: 51;

PELLSTON FAIR 40 30 67 CALM 30.07R TC 4
6HR MIN TEMP: 40; 6HR MAX TEMP: 53;

ROGERS CITY FAIR 35 32 86 CALM 30.07S TC 2
TRAVERSE CITY FAIR 50 35 56 CALM 30.01S TC 10
6HR MIN TEMP: 50; 6HR MAX TEMP: 56;

$$
MIZ007>008-015-030100-
EASTERN UPPER MICHIGAN

CITY SKY/WX TMP DP RH WIND PRES REMARKS
KINROSS FAIR 39 32 76 SE9 30.06R WCI 33 TC 4
6HR MIN TEMP: 39; 6HR MAX TEMP: 48;

MACKINAC ISLAN FAIR 42 30 63 SE8 30.06R TC 5
6HR MIN TEMP: 42; 6HR MAX TEMP: 48;

NEWBERRY FAIR 39 33 78 S9 30.02S WCI 33 TC 4
6HR MIN TEMP: 39; 6HR MAX TEMP: 47;

S. S. MARIE FAIR 43 33 68 SE6 30.05R TC 6
6HR MIN TEMP: 43; 6HR MAX TEMP: 48;

$$
MIZ004>006-011>014-085-030100-
CENTRAL UPPER MICHIGAN

CITY SKY/WX TMP DP RH WIND PRES REMARKS
MANISTIQUE FAIR 35 35 100 SE5 30.01F FOG WCI 30
6HR MIN TEMP: 35; 6HR MAX TEMP: 42;

ESCANABA FAIR 36 36 100 SE8 29.99F WCI 30 TC 2
6HR MIN TEMP: 36; 6HR MAX TEMP: 45;

MENOMINEE FAIR 40 35 83 S10 29.98S WCI 33 TC 4
6HR MIN TEMP: 40; 6HR MAX TEMP: 53;

SAWYER-GWINN CLEAR 41 34 75 S13 29.94R TC 5
MUNISING N/A 44 34 67 S8 29.97R TC 7
6HR MIN TEMP: 44; 6HR MAX TEMP: 52;

$$
MIZ001>003-009>011-084-030100-
WESTERN UPPER MICHIGAN

CITY SKY/WX TMP DP RH WIND PRES REMARKS
IRON MOUNTAIN FAIR 48 35 60 SE12G20 29.90S TC 9
6HR MIN TEMP: 48; 6HR MAX TEMP: 56;

HOUGHTON FAIR 41 29 62 E12 29.90F TC 5
6HR MIN TEMP: 41; 6HR MAX TEMP: 53;

COPPER HARBOR N/A 38 33 82 SE5 29.97R WCI 34 TC 3
6HR MIN TEMP: 38; 6HR MAX TEMP: 43;

IRONWOOD FAIR 49 35 58 E8 29.83F TC 9
6HR MIN TEMP: 49; 6HR MAX TEMP: 55;

$$

ABBREVIATIONS USED IN REMARKS
TC - TEMPERATURE IN CELSIUS
WCI - WIND CHILL INDEX
HX - HEAT INDEX
VSB - VISIBILITY




000
ASUS63 KAPX 021625
RTPAPX


Eastern Upper/Northern Lower Michigan Temperature and Precip Summary
National Weather Service Gaylord MI
1125 AM EST Sat Mar 2 2024

Yesterday`s High Temperature...12 hour Low ending 7 am EST
24 hour Precipitation/Snowfall ending 7 am EST
Snow Depth observed at 7 am EST

.BR APX 0302 ES DH00/TAIRZX/DH07/TAIRZP/PPDRZZ/SFDRZZ/SDIRZZ
:..................................................................
: MAX MIN 24 HR 24 HR SNOW
:ID LOCATION TEMP TEMP PRECIP SNOW DEPTH
:..................................................................
ANJ : Sault Ste Marie : 48 / 27 / 0.00 / 0.0 / 2
APN : Alpena : 51 / 28 / 0.00 / 0.0 / 0
HTL : Houghton Lake : 49 / 35 / 0.00 / 0.0 / 0
PLN : Pellston : 51 / 25 / 0.00 / M / M
TVC : Traverse City : 54 / 34 / 0.00 / M / M
GLR : Gaylord : 50 / 35 / 0.00 / M / M
.END

Cooperative Observations
Temperature/Precipitation/Snowfall values are for 24 hour period
ending at observation time. Snow Depth at obs time.

...................................................................
OBS MAX MIN SNOW SNOW
ID LOCATION TIME TEMP TEMP PCPN FALL DEPTH
...................................................................
BEUM4: Beulah 7SSW :DH0800/ 50 / 32 / 0.00 / M / T
CHRM4: Charlevoix :DH0800/ 51 / 18 / 0.00 / 0.0 / 1.0
DTVM4: Detour Village :DH0800/ 43 / 30 / 0.00 / 0.0 / T
EJDM4: East Jordan :DH0800/ 51 / 21 / M / M / M
EJNM4: East Jordan 2NW :DH0830/ 52 / 26 / 0.00 / 0.0 / T
ETWM4: East Tawas :DH0830/ 49 / 31 / 0.00 / 0.0 / 0.0
FLAM4: Fife Lake 2WSW :DH0700/ 49 / 28 / 0.00 / 0.0 / 0.0
APXM4: Gaylord 9SSW (NWS) :DH0700/ M / M / 0.00 / 0.0 / 0.0
GLNM4: Glennie 2SE :DH0730/ 48 / 19 / 0.00 / 0.0 / 0.0
HALM4: Hale Loud Dam :DH0900/ 50 / 29 / 0.00 / 0.0 / 0.0
MYOM4: Mio :DH0830/ 51 / 31 / 0.00 / 0.0 / T
PETM4: Petoskey :DH0800/ 51 / 32 / 0.00 / 0.0 / M
PTYM4: Petoskey NCMC :DH0800/ 51 / 28 / 0.00 / 0.0 / 0.0
SSMM4: Sault Ste Marie :DH0730/ 48 / 18 / 0.00 / 0.0 / 3.0
STAM4: Standish 4NE :DH0800/ 49 / 25 / 0.00 / 0.0 / 0.0
TCEM4: Traverse City 4.7ESE :DH0700/ 51 / 32 / 0.00 / 0.0 / 0.0
WBRM4: West Branch 3SE :DH0800/ 50 / 17 / 0.00 / 0.0 / 0.0

These data are preliminary and have not undergone final quality
control by the National Centers for Environmental Information.
Therefore...these data are subject to revision. Final
and certified climate data can be accessed at www.ncdc.noaa.gov.

&&

The following are supplemental temperature and precipitation data.
This includes data which are received from non-National Weather
Service maintained observing systems...as well as reports from
public weather spotters. Data is only partially quality controlled
and is not suitable for official climatological records.

.BR APX 0302 ES DH00/TAIRZX/DH07/TAIRZP
:
:Automated Temperature Data--Yesterday High/12 hr Low Ending 7 am EST
:..................................................................
: MAX MIN
:ID LOCATION TEMP TEMP
:..................................................................
:
ERY : Newberry : 43 / 34
CIU : Kinross : 48 / 30
MCD : Mackinac Island : 49 / 35
DRM : Drummond Island : 45 / 30
SJX : Beaver Island : 47 / 37
SLH : Cheboygan : 50 / 27
PZQ : Rogers City : 51 / 29
MGN : Harbor Springs : 50 / 30
CVX : Charlevoix : 49 / 30
BFA : Boyne Falls : 52 / 34
ACB : Bellaire : 51 / 30
FKS : Frankfort : 44 / 38
MBL : Manistee : 49 / 31
CAD : Cadillac : 48 / 34
Y31 : West Branch : 51 / 33
OSC : Oscoda : 48 / 37
LDM : Ludington : 47 / 36
RQB : Big Rapids : 49 / 35
MOP : Mount Pleasant : 48 / 38
IKW : Midland : 50 / 40
.END

U.S. Forest Serivce Remote Automated Weather Stations (RAWS)
Data is only partially quality controlled
Yesterday`s High/12 hour Low Temperature ending 7 am EST
Maximum Relative Humidity over past 12 hours
12/24 hour Precipitation ending 7 am EST
...................................................................
MAX MIN MAX 12 HR 24 HR
ID LOCATION TEMP TEMP RH PRECIP PRECIP
...................................................................
AGRM4: Alger RAWS : 52 / 34 / 74 / 0.00 / 0.00
ATAM4: Atlanta RAWS : 52 / 35 / 61 / 0.00 / 0.00
BCYM4: Barton City RAWS : 51 / 36 / 68 / 0.00 / 0.00
GYGM4: Grayling RAWS : 51 / 34 / 78 / 0.00 / 0.00
INDM4: Indian River RAWS : 54 / 29 / 74 / 0.00 / 0.00
MMOM4: Mio RAWS : 50 / 35 / 61 / 0.00 / 0.00
NMIM4: N Manitou Island : 45 / 36 / 86 / 0.00 / 0.00
RACM4: Raco RAWS : 46 / 27 / 87 / 0.00 / 0.24
REXM4: Rexton RAWS : 43 / 29 / 95 / 0.00 / 0.00
RSCM4: Roscommon RAWS : 50 / 35 / M / 0.00 / 0.00
RYDM4: Rudyard RAWS : 48 / M / 40 / M / M
SBDM4: The Bear RAWS : 50 / 34 / 95 / 0.00 / 0.00
SCKM4: Silver Creek RAWS : 50 / 36 / 75 / 0.00 / 0.00
WLLM4: Wellston RAWS : 53 / 30 / 86 / 0.00 / 0.00

The following are precipitation reports received by the National
Weather Service in Gaylord...valid for the time period ending
around 7 am EST. All reports have been recorded in inches.

Spotter reports from Eastern Upper and Northern Lower Michigan:

WATER TIME SNOW
LOCATION RAIN SNOW EQUIV PERIOD DEPTH
No Reports.



CoCoRaHS Precipitation Reports
Values are for the previous 24 hours ending around 7 am EST.
All reports have been recorded in inches.

SNOW SNOW WATER
STATION LOCATION PCPN FALL DEPTH EQUIV
No Reports.

$$